TimeEST,TemperatureF,Dew PointF,Humidity,Sea Level PressureIn,VisibilityMPH,Wind Direction,Wind SpeedMPH,Gust SpeedMPH,PrecipitationIn,Events,Conditions,WindDirDegrees,DateUTC
12:53 AM,50.0,46.9,89,30.17,10.0,Calm,Calm,-,N/A,,Clear,0,2014-01-18 05:53:00
1:53 AM,48.9,48.0,97,30.17,10.0,Calm,Calm,-,N/A,,Clear,0,2014-01-18 06:53:00
2:53 AM,48.0,46.0,93,30.16,10.0,Calm,Calm,-,N/A,,Clear,0,2014-01-18 07:53:00
3:53 AM,48.0,46.0,93,30.15,10.0,Calm,Calm,-,N/A,,Clear,0,2014-01-18 08:53:00
4:53 AM,48.0,46.9,96,30.15,10.0,Calm,Calm,-,N/A,,Clear,0,2014-01-18 09:53:00
5:53 AM,48.0,46.9,96,30.16,10.0,SE,4.6,-,N/A,,Clear,140,2014-01-18 10:53:00
6:53 AM,48.0,46.9,96,30.16,10.0,Calm,Calm,-,N/A,,Partly Cloudy,0,2014-01-18 11:53:00
7:53 AM,55.0,51.1,86,30.19,10.0,North,4.6,-,N/A,,Partly Cloudy,10,2014-01-18 12:53:00
8:53 AM,59.0,50.0,72,30.23,10.0,North,10.4,-,N/A,,Clear,10,2014-01-18 13:53:00
10:53 AM,61.0,45.0,56,30.26,10.0,North,6.9,16.1,N/A,,Clear,10,2014-01-18 15:53:00
11:53 AM,61.0,42.1,50,30.25,10.0,North,9.2,-,N/A,,Clear,350,2014-01-18 16:53:00
12:53 PM,64.0,39.9,41,30.22,10.0,North,9.2,-,N/A,,Clear,360,2014-01-18 17:53:00
1:53 PM,64.0,41.0,43,30.19,10.0,WNW,13.8,-,N/A,,Clear,300,2014-01-18 18:53:00
2:53 PM,64.0,39.9,41,30.19,10.0,WNW,12.7,-,N/A,,Clear,300,2014-01-18 19:53:00
3:53 PM,62.1,41.0,46,30.19,10.0,NW,8.1,-,N/A,,Clear,320,2014-01-18 20:53:00
4:53 PM,61.0,41.0,48,30.19,10.0,NW,10.4,-,N/A,,Clear,310,2014-01-18 21:53:00
5:53 PM,57.0,37.9,49,30.19,10.0,NW,9.2,-,N/A,,Clear,310,2014-01-18 22:53:00
6:53 PM,55.0,39.9,57,30.20,10.0,NNW,5.8,-,N/A,,Clear,340,2014-01-18 23:53:00
7:53 PM,55.0,41.0,59,30.22,10.0,NNW,4.6,-,N/A,,Clear,330,2014-01-19 00:53:00
8:53 PM,52.0,39.9,63,30.23,10.0,North,5.8,-,N/A,,Clear,360,2014-01-19 01:53:00
9:53 PM,50.0,37.9,63,30.24,10.0,North,4.6,-,N/A,,Clear,350,2014-01-19 02:53:00
10:53 PM,48.9,36.0,61,30.23,10.0,North,3.5,-,N/A,,Clear,350,2014-01-19 03:53:00
11:53 PM,46.9,35.1,63,30.22,10.0,Calm,Calm,-,N/A,,Clear,0,2014-01-19 04:53:00